#timestamp,LO_Frequency,Hit,StdDev 
1553223615.7,286046999.9,N
1553223635.6,286047001.0,N
1553223655.4,286046998.5,N
1553223675.2,286047000.0,N
1553223695.1,286047002.2,N
1553223696.0,286047002.2,N
1553223715.8,286046999.7,N
1553223735.7,286047000.2,N
1553223755.5,286047000.0,N
1553223775.3,286047001.1,N
1553223795.2,286047001.0,N
1553223815.0,286047000.6,N
1553223815.9,286047000.6,N
1553223835.7,286047000.2,N
1553223855.6,286047000.2,N
1553223875.4,286047000.4,N
1553223895.3,286046998.6,N
1553223915.1,286046998.2,N
1553223935.8,286047000.6,N
1553223955.7,286047002.6,N
1553223975.5,286047001.9,N
1553223995.3,286047002.7,N
1553224015.2,286046999.7,N
1553224035.0,286047001.9,N
1553224035.9,286047001.9,N
1553224055.8,286047001.5,N
1553224075.6,286047002.6,N
1553224095.4,286046998.2,N
1553224115.3,286046998.4,N
1553224135.1,286046998.8,N
1553224155.9,286046998.6,N
1553224175.7,286046997.2,N
1553224195.5,286046997.3,N
1553224215.4,286046999.1,N
1553224235.2,286046997.1,N
1553224255.0,286047000.3,N
1553224255.9,286047000.3,N
1553224275.8,286046998.4,N
1553224295.6,286046997.0,N
1553224315.5,286046997.9,N
1553224335.3,286046996.1,N
1553224355.1,286046995.1,N
1553224375.9,286046997.3,N
1553224395.7,286046997.1,N
1553224415.5,286046998.5,N
1553224435.4,286046998.4,N
1553224455.2,286046998.6,N
1553224475.1,286047000.4,N
1553224476.0,286047000.4,N
1553224495.8,286047001.0,N
1553224515.6,286047001.2,N
1553224535.5,286047001.1,N
1553224555.3,286046999.9,N
1553224575.2,286047001.7,N
1553224595.9,286047004.2,N
1553224615.7,286047001.4,N
1553224635.6,286047001.4,N
1553224655.4,286047002.0,N
1553224675.2,286047001.5,N
1553224695.1,286047003.6,N
1553224696.0,286047003.6,N
1553224715.8,286047004.0,N
1553224735.7,286046999.9,N
1553224755.5,286046998.1,N
1553224775.3,286047001.0,N
1553224795.2,286047000.0,N
1553224815.0,286047002.6,N
1553224815.9,286047002.6,N
1553224835.7,286047006.0,N
1553224855.6,286047004.4,N
1553224875.4,286047006.0,N
1553224895.3,286047003.2,N
1553224915.1,286047003.1,N
1553224935.8,286047003.5,N
1553224955.7,286047003.6,N
1553224975.5,286047004.2,N
1553224995.4,286047004.3,N
1553225015.2,286047000.0,N
1553225035.0,286047002.5,N
1553225035.9,286047002.5,N
1553225055.8,286047004.3,N
1553225075.6,286047002.8,N
1553225095.5,286047000.0,N
1553225115.3,286046998.7,N
1553225135.1,286046999.7,N
1553225155.9,286047000.2,N
1553225175.7,286047002.1,N
1553225195.5,286047001.5,N
1553225215.4,286047001.6,N
1553225235.2,286047002.8,N
1553225255.1,286046999.7,N
1553225256.0,286046999.7,N
1553225275.8,286047002.4,N
1553225295.6,286047001.6,N
1553225315.5,286047001.8,N
1553225335.3,286047000.5,N
1553225355.1,286047000.0,N
1553225375.9,286046999.8,N
1553225395.7,286046999.8,N
1553225415.6,286047001.1,N
1553225435.4,286046998.6,N
1553225455.2,286047000.8,N
1553225475.1,286047002.8,N
1553225476.0,286047002.8,N
1553225495.8,286047004.4,N
1553225515.6,286047002.2,N
1553225535.5,286047002.6,N
1553225555.3,286047001.9,N
1553225575.1,286047001.9,N
1553225595.9,286047004.4,N
1553225615.7,286047002.5,N
1553225635.6,286047002.1,N
1553225655.4,286047002.5,N
1553225675.2,286047000.1,N
1553225695.1,286047002.3,N
1553225696.0,286047002.3,N
1553225715.8,286047004.0,N
1553225735.7,286047004.0,N
1553225755.5,286047001.5,N
1553225775.3,286047002.7,N
1553225795.2,286047001.6,N
1553225815.0,286047001.8,N
1553225815.9,286047001.8,N
1553225835.7,286047001.8,N
1553225855.6,286047001.8,N
1553225875.4,286047003.4,N
1553225895.3,286047005.3,Y
1553225915.1,286047002.5,P
1553225935.8,286047000.0,N
1553225955.7,286047000.0,N
1553225975.5,286047002.7,N
1553225995.3,286046999.8,N
1553226015.2,286047001.8,N
1553226035.0,286047001.3,N
1553226035.9,286047001.3,N
1553226055.8,286047004.3,Y
1553226075.6,286047001.7,P
1553226095.4,286047003.5,P
1553226115.3,286047003.4,P
1553226135.1,286047007.3,Y
1553226155.9,286047003.3,P
1553226175.7,286047000.9,N
1553226195.5,286046996.8,P
1553226215.4,286046997.3,N
1553226235.2,286046996.7,N
1553226255.0,286046999.2,N
1553226255.9,286046999.2,N
1553226275.8,286046999.1,N
1553226295.6,286046997.3,N
1553226315.5,286046999.5,N
1553226335.3,286046998.7,N
1553226355.1,286046998.2,N
1553226375.9,286046997.1,N
1553226395.7,286046997.4,N
1553226415.5,286046996.6,N
1553226435.4,286046996.6,N
1553226455.2,286046999.3,N
1553226475.1,286046999.5,N
1553226476.0,286046999.5,N
1553226495.8,286046997.0,N
1553226515.6,286046999.0,N
1553226535.5,286046997.3,N
1553226555.3,286046997.8,N
1553226575.1,286046999.4,N
1553226595.9,286046998.9,N
1553226615.7,286046999.0,N
1553226635.6,286046998.7,N
1553226655.4,286047001.0,N
1553226675.2,286046999.4,N
1553226695.1,286047000.7,N
1553226696.0,286047000.7,N
1553226715.8,286046999.9,N
1553226735.6,286046998.1,N
1553226755.5,286046996.5,N
1553226775.3,286046997.0,N
1553226795.2,286046997.1,N
1553226815.9,286046998.5,N
1553226835.7,286047000.6,N
1553226855.6,286047002.4,N
1553226875.4,286047002.7,N
1553226895.2,286047002.6,N
1553226915.1,286047000.2,N
1553226916.0,286047000.2,N
1553226935.8,286047002.2,N
1553226955.7,286047000.9,N
1553226975.5,286047001.0,N
1553226995.3,286047000.5,N
1553227015.2,286047002.7,N
1553227035.0,286047002.5,N
1553227035.9,286047002.5,N
1553227055.8,286047000.2,N
1553227075.6,286047000.0,N
1553227095.4,286047000.3,N
1553227115.3,286046999.9,N
1553227135.1,286047002.2,N
1553227155.8,286047001.4,N
1553227175.7,286047003.9,N
1553227195.5,286046999.7,N
